Juneau, WI

12:05 AM CDT on June 23, 2017 (GMT -0500)
Dodge County

Weather History for KUNU - June, 2014

Change the Weather History Date:

Saturday, June 28, 2014

  Actual Average Record
Temperature  
Mean Temperature 75 °F -  
Max Temperature 82 °F 77 °F 96 °F (1971)
Min Temperature 68 °F 59 °F 45 °F (1989)
Cooling Degree Days 10    
Growing Degree Days 25 (Base 50)    
Moisture  
Dew Point 54 °F    
Average Humidity 46    
Maximum Humidity 53    
Minimum Humidity 36    
Precipitation  
Precipitation 0.04 in - - ()
Sea Level Pressure  
Sea Level Pressure 29.96 in    
Wind  
Wind Speed 11 mph (SSE)    
Max Wind Speed 17 mph    
Max Gust Speed 23 mph    
Visibility 10 miles    
Events Rain    
Averages and records for this station are not official NWS values.
T = Trace of Precipitation, MM = Missing Value Source: NWS Daily Summary

Daily Weather History Graph

Daily Weather History Graph

Search for Another Location

Airport or City:

Trip Planner

Search our weather history database for the weather conditions in past years. The results will help you decide how hot, cold, wet, or windy it might be!

Date:

Astronomy

Jun. 28, 2014 Rise Set
Actual Time 5:16 AM CDT 8:39 PM CDT
Civil Twilight 4:40 AM CDT 9:15 PM CDT
Nautical Twilight 3:54 AM CDT 10:01 PM CDT
Astronomical Twilight 2:56 AM CDT 10:59 PM CDT
Moon 6:43 AM CDT (6/28) 9:19 PM CDT (6/28)
Length of Visible Light 16h 34m
Length of Day
15h 23m
New Moon, 2% of the Moon is Illuminated
Jun 28
New Moon
Jul 5
First Quarter
Jul 12
Full
Jul 18
Last Quarter
Jul 26
New

Hourly Weather History & Observations

Time (CDT) Temp. Heat Index Dew Point Humidity Pressure Visibility Wind Dir Wind Speed Gust Speed Precip Events Conditions
12:15 AM 70.9 °F - 51.1 °F 49% 30.00 in 10.0 mi SE 10.4 mph - N/A   Clear
12:35 AM 70.7 °F - 51.3 °F 50% 30.00 in 10.0 mi SE 9.2 mph - N/A   Clear
12:55 AM 70.3 °F - 51.3 °F 51% 30.00 in 10.0 mi SE 8.1 mph - N/A   Clear
1:15 AM 70.7 °F - 51.4 °F 50% 30.00 in 10.0 mi SSE 9.2 mph - N/A   Clear
1:35 AM 70.7 °F - 51.8 °F 51% 30.00 in 10.0 mi SE 9.2 mph - N/A   Clear
1:55 AM 70.7 °F - 51.8 °F 51% 30.00 in 10.0 mi SE 9.2 mph - N/A   Clear
2:15 AM 70.3 °F - 52.0 °F 52% 29.99 in 10.0 mi SE 9.2 mph - N/A   Clear
2:35 AM 70.2 °F - 52.0 °F 52% 29.98 in 10.0 mi SE 9.2 mph - N/A   Clear
2:55 AM 70.7 °F - 52.0 °F 51% 29.99 in 10.0 mi SE 11.5 mph - N/A   Clear
3:15 AM 70.3 °F - 52.0 °F 52% 29.99 in 10.0 mi SSE 10.4 mph - N/A   Clear
3:35 AM 70.0 °F - 51.8 °F 52% 29.98 in 10.0 mi SE 8.1 mph - N/A   Clear
3:55 AM 69.3 °F - 51.6 °F 53% 29.98 in 10.0 mi SE 8.1 mph - N/A   Clear
4:15 AM 69.6 °F - 51.4 °F 52% 29.98 in 10.0 mi SE 11.5 mph - N/A   Clear
4:35 AM 69.4 °F - 51.3 °F 52% 29.98 in 10.0 mi SE 8.1 mph - N/A   Clear
4:55 AM 69.3 °F - 51.3 °F 53% 29.98 in 10.0 mi SSE 9.2 mph - N/A   Clear
5:15 AM 68.9 °F - 51.3 °F 53% 29.98 in 10.0 mi SE 8.1 mph - N/A   Clear
5:35 AM 68.9 °F - 51.3 °F 53% 30.00 in 10.0 mi SSE 8.1 mph - N/A   Clear
6:15 AM 69.6 °F - 51.6 °F 53% 30.00 in 10.0 mi SE 9.2 mph - N/A   Clear
6:35 AM 70.9 °F - 51.8 °F 51% 30.01 in 10.0 mi SSE 10.4 mph - N/A   Clear
6:55 AM 71.6 °F - 51.8 °F 50% 30.02 in 10.0 mi SSE 9.2 mph - N/A   Clear
7:15 AM 72.5 °F - 52.5 °F 49% 30.02 in 10.0 mi SSE 10.4 mph - N/A   Clear
7:35 AM 73.6 °F - 52.7 °F 48% 30.02 in 10.0 mi SSE 10.4 mph - N/A   Clear
7:55 AM 74.3 °F - 52.9 °F 47% 30.01 in 10.0 mi SSE 13.8 mph 18.4 mph N/A   Clear
8:15 AM 75.2 °F - 53.2 °F 46% 30.02 in 10.0 mi SSE 11.5 mph - N/A   Clear
8:35 AM 75.9 °F - 53.2 °F 45% 30.02 in 10.0 mi SSE 15.0 mph 18.4 mph N/A   Clear
8:55 AM 76.6 °F - 53.4 °F 44% 30.02 in 10.0 mi SSE 9.2 mph - N/A   Clear
9:15 AM 77.5 °F - 53.4 °F 43% 30.02 in 10.0 mi South 12.7 mph 18.4 mph N/A   Clear
9:35 AM 77.0 °F - 53.1 °F 43% 30.01 in 10.0 mi SSE 12.7 mph - N/A   Clear
9:55 AM 77.4 °F - 54.0 °F 44% 30.01 in 10.0 mi SE 10.4 mph - N/A   Clear
10:15 AM 80.1 °F 80.1 °F 54.7 °F 41% 30.01 in 10.0 mi SSE 12.7 mph - N/A   Clear
10:35 AM 80.2 °F 80.1 °F 54.1 °F 40% 30.01 in 10.0 mi SSE 16.1 mph - N/A   Scattered Clouds
10:55 AM 78.8 °F - 54.5 °F 43% 30.01 in 10.0 mi South 13.8 mph - N/A   Overcast
11:15 AM 79.3 °F - 54.7 °F 42% 30.01 in 10.0 mi South 11.5 mph - N/A   Mostly Cloudy
11:35 AM 76.8 °F - 57.0 °F 50% 30.00 in 5.0 mi SSW 6.9 mph - 0.04 in Rain Light Rain
11:55 AM 79.0 °F - 56.8 °F 46% 30.00 in 10.0 mi South 13.8 mph - 0.04 in   Mostly Cloudy
12:15 PM 80.2 °F 80.3 °F 55.2 °F 42% 30.00 in 10.0 mi South 11.5 mph 16.1 mph N/A Rain Light Rain
12:35 PM 81.0 °F 80.7 °F 55.0 °F 41% 29.99 in 10.0 mi SE 15.0 mph 18.4 mph N/A   Scattered Clouds
12:55 PM 78.8 °F - 55.2 °F 44% 29.99 in 10.0 mi SE 10.4 mph - N/A   Scattered Clouds
1:15 PM 77.5 °F - 55.4 °F 46% 29.99 in 10.0 mi ESE 13.8 mph - N/A   Clear
1:35 PM 79.9 °F - 56.3 °F 44% 29.98 in 10.0 mi ESE 11.5 mph - N/A   Clear
1:55 PM 79.9 °F - 55.2 °F 43% 29.98 in 10.0 mi SE 12.7 mph 17.3 mph N/A   Clear
2:15 PM 78.6 °F - 56.8 °F 47% 29.97 in 10.0 mi ESE 13.8 mph 20.7 mph N/A   Clear
2:35 PM 78.1 °F - 55.2 °F 45% 29.96 in 10.0 mi SE 12.7 mph 17.3 mph N/A   Clear
2:55 PM 78.3 °F - 55.6 °F 45% 29.96 in 10.0 mi ESE 10.4 mph - N/A   Clear
3:15 PM 80.6 °F 80.6 °F 55.9 °F 43% 29.96 in 10.0 mi SE 12.7 mph - N/A   Clear
3:35 PM 81.0 °F 80.8 °F 55.8 °F 42% 29.96 in 10.0 mi SE 12.7 mph - N/A   Clear
3:55 PM 81.7 °F 81.4 °F 56.3 °F 42% 29.95 in 10.0 mi SE 16.1 mph 20.7 mph N/A   Clear
4:15 PM 82.2 °F 81.8 °F 56.3 °F 41% 29.94 in 10.0 mi SE 17.3 mph - N/A   Scattered Clouds
4:35 PM 80.1 °F 80.2 °F 55.9 °F 43% 29.94 in 10.0 mi SE 12.7 mph - N/A   Scattered Clouds
4:55 PM 81.7 °F 81.5 °F 56.8 °F 43% 29.92 in 10.0 mi SE 11.5 mph - N/A   Clear
5:15 PM 81.1 °F 81.1 °F 56.8 °F 43% 29.92 in 10.0 mi SE 9.2 mph - N/A   Scattered Clouds
5:35 PM 81.1 °F 81.1 °F 56.8 °F 43% 29.91 in 10.0 mi SSE 11.5 mph 17.3 mph N/A   Clear
5:55 PM 81.7 °F 80.9 °F 53.2 °F 37% 29.92 in 10.0 mi South 17.3 mph 21.9 mph N/A   Scattered Clouds
6:15 PM 81.9 °F 81.1 °F 54.0 °F 38% 29.91 in 10.0 mi South 11.5 mph 19.6 mph N/A   Mostly Cloudy
6:35 PM 82.6 °F 81.5 °F 53.4 °F 36% 29.90 in 10.0 mi South 15.0 mph 18.4 mph N/A   Scattered Clouds
6:55 PM 81.9 °F - 52.9 °F 37% 29.89 in 10.0 mi SSE 12.7 mph 20.7 mph N/A   Clear
7:15 PM 81.7 °F - 52.9 °F 37% 29.89 in 10.0 mi SSE 15.0 mph 21.9 mph N/A   Clear
7:35 PM 81.0 °F 80.4 °F 53.4 °F 38% 29.88 in 10.0 mi SSE 16.1 mph - N/A   Clear
7:55 PM 79.7 °F - 53.6 °F 40% 29.87 in 10.0 mi SSE 10.4 mph - N/A   Clear
8:15 PM 79.0 °F - 54.0 °F 42% 29.89 in 10.0 mi SSE 15.0 mph 18.4 mph N/A   Scattered Clouds
8:35 PM 78.8 °F - 53.6 °F 42% 29.90 in 10.0 mi South 15.0 mph 23.0 mph N/A   Scattered Clouds
8:55 PM 78.1 °F - 53.8 °F 43% 29.91 in 10.0 mi South 12.7 mph 18.4 mph N/A   Mostly Cloudy
9:15 PM 77.5 °F - 54.0 °F 44% 29.92 in 10.0 mi South 15.0 mph - N/A   Mostly Cloudy
9:35 PM 77.0 °F - 54.3 °F 45% 29.92 in 10.0 mi SSE 10.4 mph - N/A   Scattered Clouds
9:55 PM 76.1 °F - 54.5 °F 47% 29.91 in 10.0 mi SE 10.4 mph - N/A   Clear
10:15 PM 74.7 °F - 54.9 °F 50% 29.91 in 10.0 mi SE 6.9 mph - N/A   Clear
10:35 PM 74.3 °F - 55.4 °F 52% 29.91 in 10.0 mi SSE 9.2 mph - N/A   Clear
10:55 PM 75.2 °F - 54.7 °F 49% 29.90 in 10.0 mi SSE 10.4 mph - N/A   Clear
11:15 PM 74.8 °F - 54.9 °F 50% 29.91 in 10.0 mi SSE 10.4 mph - N/A   Scattered Clouds
11:35 PM 74.7 °F - 55.0 °F 50% 29.90 in 10.0 mi SE 9.2 mph - N/A   Scattered Clouds
11:55 PM 74.3 °F - 55.0 °F 51% 29.89 in 10.0 mi SE 10.4 mph - N/A   Scattered Clouds